Location: Chrząstowo
(52.0654°N, 17.1290°E)
Time: 14:02:46
(UTC+01:00)

ISS - Pass Details

Date: 23 January 2019
Orbit: 403 x 411 km, 51.6° (Epoch: 20 February)

Event Time Altitude Azimuth Distance (km) Brightness Sun altitude
Rises 18:34:22 0° 210° (SSW) 2,327 0.5 -19.9°
Reaches altitude 10° 18:36:50 10° 192° (SSW) 1,472 -0.8 -20.3°
Enters shadow 18:37:54 15° 175° (S) 1,198 -1.5 -20.4°
